Time,TemperatureF,DewpointF,PressureIn,WindDirection,WindDirectionDegrees,WindSpeedMPH,WindSpeedGustMPH,Humidity,HourlyPrecipIn,Conditions,Clouds,dailyrainin,SoftwareType,DateUTC
2013-07-14 00:11:00,65.0,63.0,-100.00,WSW,245,0.0,1.0,92,0.00,,,-99.99,,2013-07-14 04:11:00,
2013-07-14 00:32:00,65.0,63.0,-100.00,WSW,240,0.0,1.0,93,0.00,,,-99.99,,2013-07-14 04:32:00,
2013-07-14 00:54:00,65.0,63.0,-100.00,SW,230,1.0,1.0,94,0.00,,,-99.99,,2013-07-14 04:54:00,
2013-07-14 01:02:00,65.0,64.0,-100.00,South,185,1.0,2.0,94,0.00,,,-99.99,,2013-07-14 05:02:00,
2013-07-14 01:23:00,65.0,63.0,-100.00,ESE,110,0.0,1.0,94,0.00,,,-99.99,,2013-07-14 05:23:00,
2013-07-14 02:12:00,65.0,63.0,-100.00,NNE,25,0.0,1.0,95,0.00,,,-99.99,,2013-07-14 06:12:00,
2013-07-14 02:22:00,65.0,63.0,-100.00,NNE,25,0.0,1.0,95,0.00,,,-99.99,,2013-07-14 06:22:00,
2013-07-14 03:12:00,65.0,63.0,-100.00,SW,225,0.0,1.0,96,0.00,,,-99.99,,2013-07-14 07:12:00,
2013-07-14 03:22:00,65.0,64.0,-100.00,SW,215,0.0,1.0,96,0.00,,,-99.99,,2013-07-14 07:22:00,
2013-07-14 03:33:00,65.0,64.0,-100.00,WSW,240,0.0,1.0,96,0.00,,,-99.99,,2013-07-14 07:33:00,
2013-07-14 03:43:00,65.0,63.0,-100.00,SW,215,0.0,1.0,96,0.00,,,-99.99,,2013-07-14 07:43:00,
2013-07-14 03:53:00,65.0,63.0,-100.00,SW,220,0.0,1.0,96,0.00,,,-99.99,,2013-07-14 07:53:00,
2013-07-14 04:01:00,65.0,63.0,-100.00,SW,225,0.0,1.0,96,0.00,,,-99.99,,2013-07-14 08:01:00,
2013-07-14 06:01:00,66.0,65.0,-100.00,West,280,1.0,1.0,96,0.00,,,-99.99,,2013-07-14 10:01:00,
2013-07-14 06:22:00,66.0,65.0,-100.00,West,275,0.0,1.0,96,0.00,,,-99.99,,2013-07-14 10:22:00,
2013-07-14 08:12:00,68.0,66.0,-100.00,SE,125,1.0,1.0,93,0.00,,,-99.99,,2013-07-14 12:12:00,
2013-07-14 08:22:00,68.0,66.0,-100.00,SE,125,1.0,1.0,93,0.00,,,-99.99,,2013-07-14 12:22:00,
2013-07-14 08:52:00,70.0,67.0,-100.00,East,85,1.0,2.0,90,0.00,,,-99.99,,2013-07-14 12:52:00,
2013-07-14 09:01:00,70.0,67.0,-100.00,SW,235,0.0,1.0,89,0.00,,,-99.99,,2013-07-14 13:01:00,
2013-07-14 09:11:00,70.0,67.0,-100.00,SSE,155,0.0,2.0,89,0.00,,,-99.99,,2013-07-14 13:11:00,
2013-07-14 09:22:00,70.0,66.0,-100.00,NNE,20,1.0,4.0,87,0.00,,,-99.99,,2013-07-14 13:22:00,
2013-07-14 10:11:00,73.0,68.0,-100.00,North,-999,-999.0,-999.0,82,0.00,,,-99.99,,2013-07-14 14:11:00,
2013-07-14 11:22:00,78.0,67.0,-100.00,East,90,1.0,3.0,68,0.00,,,-99.99,,2013-07-14 15:22:00,
2013-07-14 11:32:00,77.0,67.0,-100.00,SE,130,2.0,3.0,70,0.00,,,-99.99,,2013-07-14 15:32:00,
2013-07-14 12:11:00,80.0,67.0,-100.00,South,175,2.0,4.0,65,0.00,,,-99.99,,2013-07-14 16:11:00,
2013-07-14 12:22:00,80.0,67.0,-100.00,ENE,70,2.0,5.0,66,0.00,,,-99.99,,2013-07-14 16:22:00,
2013-07-14 14:01:00,81.0,67.0,-100.00,North,10,0.0,1.0,61,0.00,,,-99.99,,2013-07-14 18:01:00,
2013-07-14 14:22:00,82.0,67.0,-100.00,West,275,2.0,6.0,60,0.00,,,-99.99,,2013-07-14 18:22:00,
2013-07-14 16:53:00,83.0,67.0,-100.00,NNW,340,4.0,7.0,57,0.00,,,-99.99,,2013-07-14 20:53:00,
2013-07-14 17:02:00,83.0,66.0,-100.00,NNW,340,4.0,8.0,56,0.00,,,-99.99,,2013-07-14 21:02:00,
2013-07-14 17:22:00,83.0,67.0,-100.00,NW,315,1.0,3.0,58,0.00,,,-99.99,,2013-07-14 21:22:00,
2013-07-14 19:22:00,82.0,70.0,-100.00,South,185,0.0,1.0,67,0.00,,,-99.99,,2013-07-14 23:22:00,
2013-07-14 20:02:00,79.0,70.0,-100.00,West,265,0.0,3.0,73,0.00,,,-99.99,,2013-07-15 00:02:00,
2013-07-14 20:22:00,76.0,70.0,-100.00,SW,225,0.0,1.0,79,0.00,,,-99.99,,2013-07-15 00:22:00,
2013-07-14 22:11:00,70.0,66.0,-100.00,West,260,0.0,1.0,87,0.00,,,-99.99,,2013-07-15 02:11:00,
2013-07-14 22:22:00,70.0,66.0,-100.00,SW,225,0.0,1.0,87,0.00,,,-99.99,,2013-07-15 02:22:00,
2013-07-14 23:22:00,69.0,66.0,-100.00,SW,220,0.0,1.0,91,0.00,,,-99.99,,2013-07-15 03:22:00,